map of ABT home
Great Circle Mapper logo
ABT - Airport
Location
City:  Al-Baha, Saudi Arabia
Name:Al-Baha Airport
ICAO / IATA:OEBA / ABT

Details
Type:Airport (Aerodrome, Airfield)
Use:Public/Civil, International (customs port of entry)
Latitude:2017'46"N (20.296111)
Longitude:4138'03"E (41.634167)
Elevation:5486 ft (1672 m)
Variation:3.00E (WMM2015 magnetic declination)
0.05 annual change
Runways:1
Longest:10991 × 148 ft (3350 × 45 m), paved

Time
Time Zone:UTC+3
Local Time:

Weather
METAR:OEBA 311700Z 08009KT 9999 FEW025CB SCT030 33/07 Q1018 NOSIG

Related Locations
Nearby:
Farthest:ZTA: 12435 mi / 20012 km
Tureia, PF

Find:

   beyond  
but within

Other Information
Maps:
NOTAMs:
Links:
Sources:

  
flag of Saudi Arabia   

Sectional Chart

Flight Planning
at skyvector.com

Satellite Image

Google Maps Satellite view

 

Copyright © 2004-2015 Karl L. Swartz. All rights reserved.
The Great Circle Mapper name and logo are trademarks of the Great Circle Mapper.
All other trademarks mentioned herein belong to their respective owners.
Please see credits for attibutions and further copyright information.

  Follow gcmap on Facebook Follow gcmap on Twitter Follow gcmap on Google+

hCard Microformat

Geo Microformat